Location: Constantia
(34.0183°S, 18.4411°E)
Time: 05:15:10
(UTC+00:00)

ATLAS 3B R/B - Pass Details

Date: 17 February 2020
Orbit: 1029 x 1166 km, 63.8° (Epoch: 12 March)

Event Time Altitude Azimuth Distance (km) Brightness Sun altitude
Exits shadow 00:57:09 26° 65° (ENE) 2,096 4.2 -36.1°
Maximum altitude 00:57:42 26° 72° (ENE) 2,089 4.3 -36.0°
Drops below altitude 10° 01:03:36 10° 125° (SE) 3,094 5.8 -35.2°
Sets 01:06:49 0° 136° (SE) 4,066 6.8 -34.8°
